YM2KV-13 Weather Reports


Display with metric or nautical units.
time (UTC)temp
F
wind
direction
speed
MPH
gust
MPH
rain 1hr
in
rain 24hr
in
rain mn
in
humidity
%
barometer
mb
20260509111955 83 0.0 0.0 0.00 0.00 0.00 40 1025.2
20260509110955 82 0.0 0.0 0.00 0.00 0.00 41 1025.3
20260509105955 82 0.0 0.0 0.00 0.00 0.00 41 1025.3
20260509104955 81 0.0 0.0 0.00 0.00 0.00 41 1025.4
20260509103955 80 0.0 0.0 0.00 0.00 0.00 43 1025.5
20260509102955 78 0.0 0.0 0.00 0.00 0.00 45 1025.7
20260509101955 77 0.0 0.0 0.00 0.00 0.00 45 1025.7
20260509100955 79 0.0 0.0 0.00 0.00 0.00 46 1025.8
20260509095955 77 0.0 0.0 0.00 0.00 0.00 46 1026.1
20260509094955 77 0.0 0.0 0.00 0.00 0.00 46 1026.2
20260509093955 76 0.0 0.0 0.00 0.00 0.00 47 1026.4
20260509092955 74 0.0 0.0 0.00 0.00 0.00 49 1026.6
20260509091955 72 0.0 0.0 0.00 0.00 0.00 52 1026.8
20260509090955 71 0.0 0.0 0.00 0.00 0.00 52 1026.9
20260509085955 70 0.0 0.0 0.00 0.00 0.00 54 1026.9
20260509084955 71 0.0 0.0 0.00 0.00 0.00 53 1027.1
20260509083955 70 0.0 0.0 0.00 0.00 0.00 57 1027.1
20260509082955 69 0.0 0.0 0.00 0.00 0.00 60 1027.3
20260509081954 68 0.0 0.0 0.00 0.00 0.00 63 1027.4
20260509080954 66 0.0 0.0 0.00 0.00 0.00 68 1027.5
20260509075954 64 0.0 0.0 0.00 0.00 0.00 70 1027.7
20260509074955 63 0.0 0.0 0.00 0.00 0.00 71 1027.7
20260509073955 61 0.0 0.0 0.00 0.00 0.00 72 1027.7
20260509072955 60 0.0 0.0 0.00 0.00 0.00 76 1027.8
20260509071954 59 0.0 0.0 0.00 0.00 0.00 78 1027.8
20260509070954 59 0.0 0.0 0.00 0.00 0.00 82 1027.9
20260509065954 59 0.0 0.0 0.00 0.00 0.00 81 1028.0
20260509064954 59 0.0 0.0 0.00 0.00 0.00 80 1028.1
20260509063954 60 0.0 0.0 0.00 0.00 0.00 81 1028.2
20260509062954 60 0.0 0.0 0.00 0.00 0.00 82 1028.4
20260509061955 59 0.0 0.0 0.00 0.00 0.00 82 1028.6
20260509060954 59 0.0 0.0 0.00 0.00 0.00 83 1028.8
20260509055954 58 0.0 0.0 0.00 0.00 0.00 85 1028.9
20260509054954 58 0.0 0.0 0.00 0.00 0.00 88 1029.1
20260509053954 58 0.0 0.0 0.00 0.00 0.00 87 1029.2
20260509052954 57 0.0 0.0 0.00 0.00 0.00 83 1029.3
20260509051954 57 0.0 0.0 0.00 0.00 0.00 82 1029.2
20260509050954 57 0.0 0.0 0.00 0.00 0.00 80 1029.2
20260509045954 57 0.0 0.0 0.00 0.00 0.00 78 1029.2
20260509044954 57 0.0 0.0 0.00 0.00 0.00 80 1029.1
20260509043954 57 0.0 0.0 0.00 0.00 0.00 80 1029.0
20260509042954 56 0.0 0.0 0.00 0.00 0.00 80 1028.9
20260509041954 55 0.0 0.0 0.00 0.00 0.00 80 1028.8
20260509040954 55 0.0 0.0 0.00 0.00 0.00 81 1028.7
20260509035954 55 0.0 0.0 0.00 0.00 0.00 82 1028.6
20260509034954 54 0.0 0.0 0.00 0.00 0.00 82 1028.5
20260509033954 54 0.0 0.0 0.00 0.00 0.00 83 1028.6
20260509032954 54 0.0 0.0 0.00 0.00 0.00 81 1028.6
20260509031954 54 0.0 0.0 0.00 0.00 0.00 82 1028.6
20260509030954 53 0.0 0.0 0.00 0.00 0.00 81 1028.7
20260509025954 54 0.0 0.0 0.00 0.00 0.00 83 1028.6
20260509024955 54 0.0 0.0 0.00 0.00 0.00 83 1028.5
20260509023954 54 0.0 0.0 0.00 0.00 0.00 81 1028.5
20260509022954 54 0.0 0.0 0.00 0.00 0.00 81 1028.5
20260509021954 53 0.0 0.0 0.00 0.00 0.00 81 1028.4
20260509020954 53 0.0 0.0 0.00 0.00 0.00 82 1028.3
20260509015954 54 0.0 0.0 0.00 0.00 0.00 79 1028.3
20260509014954 53 0.0 0.0 0.00 0.00 0.00 80 1028.3
20260509013954 53 0.0 0.0 0.00 0.00 0.00 79 1028.2
20260509012954 54 0.0 0.0 0.00 0.00 0.00 81 1028.1
20260509011954 53 0.0 0.0 0.00 0.00 0.00 80 1028.1
20260509010954 53 0.0 0.0 0.00 0.00 0.00 80 1028.1
20260509005954 53 0.0 0.0 0.00 0.00 0.00 80 1028.1
20260509004954 53 0.0 0.0 0.00 0.00 0.00 80 1028.0
20260509003954 53 0.0 0.0 0.00 0.00 0.00 80 1028.0
20260509002954 53 0.0 0.0 0.00 0.00 0.00 79 1027.9
20260509001954 53 0.0 0.0 0.00 0.00 0.00 78 1027.9
20260509000954 53 0.0 0.0 0.00 0.00 0.00 79 1028.0
20260508235954 53 0.0 0.0 0.00 0.00 0.00 78 1028.0
20260508234954 52 0.0 0.0 0.00 0.00 0.00 78 1027.9
20260508233954 52 0.0 0.0 0.00 0.00 0.00 80 1028.1
20260508232954 52 0.0 0.0 0.00 0.00 0.00 79 1028.1
20260508231954 52 0.0 0.0 0.00 0.00 0.00 79 1028.2
20260508230954 51 0.0 0.0 0.00 0.00 0.00 80 1028.2
20260508225954 51 0.0 0.0 0.00 0.00 0.00 80 1028.3
20260508224954 51 0.0 0.0 0.00 0.00 0.00 79 1028.4
20260508223954 51 0.0 0.0 0.00 0.00 0.00 79 1028.4
20260508222954 51 0.0 0.0 0.00 0.00 0.00 79 1028.3
20260508221954 51 0.0 0.0 0.00 0.00 0.00 79 1028.3
20260508220954 52 0.0 0.0 0.00 0.00 0.00 77 1028.5
20260508215954 51 0.0 0.0 0.00 0.00 0.00 79 1028.5
20260508214954 51 0.0 0.0 0.00 0.00 0.00 79 1028.5
20260508213954 51 0.0 0.0 0.00 0.00 0.00 79 1028.5
20260508212954 51 0.0 0.0 0.00 0.00 0.00 78 1028.6
20260508211954 52 0.0 0.0 0.00 0.00 0.00 77 1028.6
20260508210954 52 0.0 0.0 0.00 0.00 0.00 77 1028.6
20260508205954 52 0.0 0.0 0.00 0.00 0.00 76 1028.6
20260508204954 52 0.0 0.0 0.00 0.00 0.00 76 1028.6
20260508203954 52 0.0 0.0 0.00 0.00 0.00 76 1028.7
20260508202954 53 0.0 0.0 0.00 0.00 0.00 74 1028.7
20260508201954 53 0.0 0.0 0.00 0.00 0.00 74 1028.7
20260508200954 55 0.0 0.0 0.00 0.00 0.00 71 1028.6
20260508195954 54 0.0 0.0 0.00 0.00 0.00 73 1028.7
20260508194954 54 0.0 0.0 0.00 0.00 0.00 73 1028.6
20260508193954 55 0.0 0.0 0.00 0.00 0.00 72 1028.6
20260508192954 55 0.0 0.0 0.00 0.00 0.00 72 1028.6
20260508191954 56 0.0 0.0 0.00 0.00 0.00 71 1028.6
20260508190953 56 0.0 0.0 0.00 0.00 0.00 71 1028.7
20260508185953 56 0.0 0.0 0.00 0.00 0.00 70 1028.7
20260508184954 57 0.0 0.0 0.00 0.00 0.00 70 1028.7
20260508183953 57 0.0 0.0 0.00 0.00 0.00 69 1028.7
20260508182954 58 0.0 0.0 0.00 0.00 0.00 69 1028.6
20260508181953 58 0.0 0.0 0.00 0.00 0.00 69 1028.5
20260508180953 59 0.0 0.0 0.00 0.00 0.00 68 1028.4
20260508175953 59 0.0 0.0 0.00 0.00 0.00 67 1028.3
20260508174953 60 0.0 0.0 0.00 0.00 0.00 67 1028.1
20260508173953 61 0.0 0.0 0.00 0.00 0.00 65 1028.0
20260508172953 62 0.0 0.0 0.00 0.00 0.00 65 1027.8
20260508171953 63 0.0 0.0 0.00 0.00 0.00 62 1027.7
20260508170953 63 0.0 0.0 0.00 0.00 0.00 63 1027.7
20260508165953 64 0.0 0.0 0.00 0.00 0.00 62 1027.6
20260508164953 66 0.0 0.0 0.00 0.00 0.00 59 1027.5
20260508163953 68 0.0 0.0 0.00 0.00 0.00 57 1027.5
20260508162953 69 0.0 0.0 0.00 0.00 0.00 55 1027.5
20260508161953 70 0.0 0.0 0.00 0.00 0.00 55 1027.6
20260508160953 71 0.0 0.0 0.00 0.00 0.00 55 1027.7
20260508155953 73 0.0 0.0 0.00 0.00 0.00 53 1027.7
20260508154953 75 0.0 0.0 0.00 0.00 0.00 47 1027.8
20260508153953 76 0.0 0.0 0.00 0.00 0.00 46 1027.8
20260508152953 77 0.0 0.0 0.00 0.00 0.00 40 1027.8
20260508151953 78 0.0 0.0 0.00 0.00 0.00 41 1027.8
20260508150953 79 0.0 0.0 0.00 0.00 0.00 37 1027.9
20260508145953 79 0.0 0.0 0.00 0.00 0.00 34 1027.8
20260508144953 79 0.0 0.0 0.00 0.00 0.00 37 1027.8
20260508143953 80 0.0 0.0 0.00 0.00 0.00 35 1027.8
20260508142953 81 0.0 0.0 0.00 0.00 0.00 35 1027.9
20260508141953 82 0.0 0.0 0.00 0.00 0.00 36 1028.0
20260508140953 82 0.0 0.0 0.00 0.00 0.00 34 1027.9
20260508135953 84 0.0 0.0 0.00 0.00 0.00 34 1027.9
20260508134953 84 0.0 0.0 0.00 0.00 0.00 32 1027.9
20260508133953 83 0.0 0.0 0.00 0.00 0.00 34 1027.9
20260508132953 85 0.0 0.0 0.00 0.00 0.00 32 1027.9
20260508131953 83 0.0 0.0 0.00 0.00 0.00 34 1028.0
20260508130953 83 0.0 0.0 0.00 0.00 0.00 33 1028.1
20260508125953 84 0.0 0.0 0.00 0.00 0.00 33 1028.2
20260508124953 85 0.0 0.0 0.00 0.00 0.00 32 1028.2
20260508123953 85 0.0 0.0 0.00 0.00 0.00 33 1028.1
20260508122953 84 0.0 0.0 0.00 0.00 0.00 33 1028.1
20260508121953 84 0.0 0.0 0.00 0.00 0.00 33 1028.1
20260508120953 83 0.0 0.0 0.00 0.00 0.00 33 1028.2
20260508115953 84 0.0 0.0 0.00 0.00 0.00 32 1028.3
20260508114953 85 0.0 0.0 0.00 0.00 0.00 34 1028.3
20260508113953 85 0.0 0.0 0.00 0.00 0.00 33 1028.4
20260508112953 85 0.0 0.0 0.00 0.00 0.00 32 1028.4